STARLINK-2273, 47993

Orbit data source: Space-Track

STARLINK-2273, 47993 is a payload satellite owned by SpaceX/Seattle (US) in LEO that was launched on Wed, 24 Mar 2021 UTC via an FALCON 9 launch vehicle from the Air Force Eastern Test Range (AFETR). Payload-class satellites include a variety of spacecraft equipped with specific instruments for various scientific and technological missions. These include communications satellites like Starlink; space stations such as the ISS; scientific satellites like the Hubble; Earth observation satellites from companies like Planet Labs, Umbra, and HawkEye 360; GPS; miniature CubeSats for education and research; and military/defense satellites.

Loading next visibility...
Identifier
47993, 2021-024S
Orbit
LEO
Country
Flag of USUS
Related business
Manufacturer
SpaceX/Seattle
Mission
Partially operational Commercial Communications
Bus & Motor
STARLINK, Unknown motor
Mass
260 kg wet, ~248 kg dry
Launch date (UTC)
2021-03-24 (5 years ago)
Launch vehicle
FALCON 9
Launch site
Air Force Eastern Test Range (AFETR)
Object type
Payload
Rocket body
Debris
Shape & HBR
Box + 1 Pan, 10.1 m
Radar Cross Section
13.562 m², Large (>1 m²)

Expand to show TLE details & history
Last TLE update: 17 hours ago

TLE from 17 hours ago
0 STARLINK-2273
1 47993U 21024S   26175.25002315  .01177541  00000-0  12677-1 0  9990
2 47993  53.1483 151.4647 0001767  86.5269 338.5561 15.60381090  5866
Epoch: 2026-06-24T06:00Z
TLE epoch observation values (Epoch: 2026-06-24T06:00:02.000Z)
Latitude
46.67019°
Longitude
-158.76031°
Altitude
390.492 km
Speed
7.682 km/s
True Right ascension
13h 34m 37s
True Declination
46° 29' 21"
Sunlit
Object was in daylight at epoch
Visualization orbit readout
Latitude
Unknown
Longitude
Unknown
Altitude
Unknown
Speed
Unknown
Apparent Right ascension
Unknown
Apparent Declination
Unknown
Sunlit
N/A
Visualization observer readout
Local Sidereal Time
10:18:15
Azimuth
Unknown
Elevation
Unknown
Doppler factor
Unknown
Orbital elements
Apogee altitude
388.012 km
Perigee altitude
385.622 km
Semi-major axis
6,764.954 km
Eccentricity
0.00018
Inclination
53.1483°
RAAN
151.4647°
Arg. of periapsis
86.5269°
True anomaly
338.5487°
Mean anomaly
338.5561°
Eccentric anomaly
338.5524°
Mean motion
3.90073 °/min
Orbital period
92.29 mins
BSTAR
0.012677
Loading maneuver chart data...
Computing Atmospheric mass density...

Documentation

Showing up to 5 results
|